Погода в Восходе

Россия / Республика Калмыкия     47°52′55″N   45°17′39″E
темп.,
°C
ветер,
м/с
пор.,
м/с
влажн.,
%
обл.,
%
осадки,
мм/ч
давл.,
гПа
погр.,
м
2 декабря, чт
чт200:00+1юз3877100 0.0 1006279
03:000ю58100100 2.8 1006217
06:00+2з8118599 0.4 1008760
09:00+2з6107999 0.4 10121025
12:00+4з6106880 0.1 10141411
15:00+3з69685 0.1 1016971
18:00+1зюз35755 0.0 101893
21:00+1юз477781 0.0 1019129
3 декабря, пт
пт300:00+1ююз488186 0.0 1019138
03:00+1ююз5108412 0.0 1019192
06:00+2ююз6128567 0.0 1020232
09:00+3ююз51284100 0.0 1021285
12:00+6ююз61169100 0.0 1021415
15:00+6ю61169100 0.0 1021333
18:00+4ю51177100 0.0 1021217
21:00+4ююв51381100 0.0 1021239
4 декабря, сб
сб400:00+4ю6139266 0.0 1020305
03:00+3ю613940 0.0 1020322
06:00+3ю6139598 0.0 1019285
09:00+4ю71294100 0.0 1018290
12:00+7ю61186100 0.0 1017306
15:00+7ю61184100 0.0 1017295
18:00+7ю51187100 0.0 1017239
21:00+7ю51185100 0.0 1016254
5 декабря, вс
вс500:00+5ю51189100 0.0 1015226
03:00+5юз2290100 0.0 101628
06:00+5всв2283100 0.0 101623
09:00+6в3586100 0.1 1017147
12:00+7всв2283100 0.0 1017160
15:00+7в2387100 0.1 1017125
18:00+6в3692100 0.5 1018249
21:00+6в2293100 0.8 101992
6 декабря, пн
пн600:00+6в2295100 0.3 102067
03:00+6в2295100 0.4 102059
06:00+6в3395100 0.3 102196
09:00+7вюв2494100 0.3 1023145
12:00+9ююв3586100 0.0 1023296
15:00+9ююв348287 0.0 1023218
18:00+7ююв348917 0.0 102557
21:00+7ююв3592100 0.0 102698